Location: Elmsmere
(40.9284°N, 73.8207°W)
Time: 05:17:42
(UTC+00:00)

USA 306 - Pass Details

Date: 29 October 2020
Orbit: 569 x 577 km, 54.0° (Epoch: 22 November)

Event Time Altitude Azimuth Distance (km) Brightness Sun altitude
Rises 22:44:07 0° 314° (NW) 2,786 7.0 -10.0°
Reaches altitude 10° 22:46:36 10° 325° (NW) 1,884 5.9 -10.4°
Maximum altitude 22:50:24 30° 28° (NNE) 1,040 3.9 -11.1°
Enters shadow 22:52:56 17° 79° (E) 1,476 4.3 -11.6°
